• In Belgium
  • List of Countries
  • For 7 days
  • Water Temperature
  • Satellite Maps
  • Weather Map
  • Weather Widgets
  • user-avatar
    Login

    Hourly Weather Chardzhou

    Today, 21 August, Tuesday

    Time Temperature Precipitation Wind Pressure Humidity
    00:00 +26°C° 0 mm 4 mps 743 mmHg 27%
    01:00 +26°C° 0 mm 4 mps 743 mmHg 28%
    02:00 +25°C° 0 mm 4 mps 743 mmHg 30%
    03:00 +25°C° 0 mm 4 mps 743 mmHg 32%
    04:00 +24°C° 0 mm 3 mps 743 mmHg 34%
    05:00 +25°C° 0 mm 4 mps 744 mmHg 34%
    06:00 +26°C° 0 mm 4 mps 744 mmHg 34%
    07:00 +27°C° 0 mm 5 mps 744 mmHg 34%
    08:00 +28°C° 0 mm 5 mps 744 mmHg 30%
    09:00 +30°C° 0 mm 5 mps 744 mmHg 26%
    10:00 +32°C° 0 mm 5 mps 745 mmHg 22%
    11:00 +33°C° 0 mm 5 mps 744 mmHg 21%
    12:00 +33°C° 0 mm 5 mps 744 mmHg 19%
    13:00 +34°C° 0 mm 5 mps 744 mmHg 17%
    14:00 +34°C° 0 mm 6 mps 743 mmHg 17%
    15:00 +34°C° 0 mm 6 mps 743 mmHg 17%
    16:00 +34°C° 0 mm 6 mps 743 mmHg 18%
    17:00 +32°C° 0 mm 6 mps 743 mmHg 19%
    18:00 +30°C° 0 mm 5 mps 743 mmHg 20%
    19:00 +29°C° 0 mm 5 mps 743 mmHg 22%
    20:00 +28°C° 0 mm 5 mps 743 mmHg 22%
    21:00 +27°C° 0 mm 5 mps 743 mmHg 22%
    22:00 +27°C° 0 mm 5 mps 743 mmHg 22%
    23:00 +26°C° 0 mm 5 mps 743 mmHg 21%

    Tomorrow, 22 August, Wednesday

    Time Temperature Precipitation Wind Pressure Humidity
    00:00 +24°C° 0 mm 6 mps 742 mmHg 21%
    01:00 +24°C° 0 mm 6 mps 742 mmHg 20%
    02:00 +23°C° 0 mm 6 mps 742 mmHg 21%
    03:00 +23°C° 0 mm 6 mps 742 mmHg 22%
    04:00 +22°C° 0 mm 6 mps 742 mmHg 23%
    05:00 +23°C° 0 mm 7 mps 743 mmHg 23%
    06:00 +23°C° 0 mm 7 mps 743 mmHg 23%
    07:00 +24°C° 0 mm 8 mps 743 mmHg 22%
    08:00 +26°C° 0 mm 8 mps 743 mmHg 20%
    09:00 +28°C° 0 mm 8 mps 743 mmHg 17%
    10:00 +30°C° 0 mm 7 mps 743 mmHg 14%
    11:00 +32°C° 0 mm 7 mps 743 mmHg 13%
    12:00 +33°C° 0 mm 7 mps 742 mmHg 11%
    13:00 +35°C° 0 mm 7 mps 742 mmHg 10%
    14:00 +35°C° 0 mm 8 mps 741 mmHg 10%
    15:00 +35°C° 0 mm 8 mps 741 mmHg 9%
    16:00 +35°C° 0 mm 8 mps 740 mmHg 9%
    17:00 +34°C° 0 mm 7 mps 740 mmHg 10%
    18:00 +32°C° 0 mm 6 mps 740 mmHg 11%
    19:00 +30°C° 0 mm 5 mps 740 mmHg 12%
    20:00 +29°C° 0 mm 5 mps 740 mmHg 12%
    21:00 +28°C° 0 mm 5 mps 740 mmHg 13%
    22:00 +27°C° 0 mm 5 mps 740 mmHg 14%
    23:00 +27°C° 0 mm 5 mps 740 mmHg 15%

    Day after tomorrow, 23 August, Thursday

    Time Temperature Precipitation Wind Pressure Humidity
    00:00 +26°C° 0 mm 5 mps 740 mmHg 16%
    01:00 +25°C° 0 mm 5 mps 740 mmHg 16%
    02:00 +25°C° 0 mm 5 mps 740 mmHg 18%
    03:00 +23°C° 0 mm 5 mps 740 mmHg 19%
    04:00 +23°C° 0 mm 5 mps 740 mmHg 20%
    05:00 +25°C° 0 mm 5 mps 740 mmHg 19%
    06:00 +26°C° 0 mm 6 mps 740 mmHg 19%
    07:00 +26°C° 0 mm 6 mps 741 mmHg 18%
    08:00 +29°C° 0 mm 6 mps 741 mmHg 15%
    09:00 +32°C° 0 mm 6 mps 741 mmHg 13%
    10:00 +34°C° 0 mm 6 mps 741 mmHg 11%
    11:00 +35°C° 0 mm 6 mps 741 mmHg 10%
    12:00 +36°C° 0 mm 6 mps 740 mmHg 9%
    13:00 +38°C° 0 mm 6 mps 740 mmHg 8%
    14:00 +38°C° 0 mm 6 mps 740 mmHg 8%
    15:00 +38°C° 0 mm 6 mps 739 mmHg 8%
    16:00 +38°C° 0 mm 6 mps 739 mmHg 8%
    17:00 +35°C° 0 mm 5 mps 739 mmHg 9%
    18:00 +34°C° 0 mm 5 mps 739 mmHg 10%
    19:00 +32°C° 0 mm 4 mps 739 mmHg 11%
    20:00 +30°C° 0 mm 4 mps 739 mmHg 12%
    21:00 +29°C° 0 mm 4 mps 740 mmHg 13%
    22:00 +28°C° 0 mm 4 mps 740 mmHg 14%
    23:00 +28°C° 0 mm 4 mps 740 mmHg 15%

    24 August, Friday

    Time Temperature Precipitation Wind Pressure Humidity
    00:00 +27°C° 0 mm 4 mps 740 mmHg 16%
    01:00 +27°C° 0 mm 4 mps 740 mmHg 16%
    02:00 +26°C° 0 mm 4 mps 740 mmHg 18%
    03:00 +26°C° 0 mm 4 mps 740 mmHg 19%
    04:00 +25°C° 0 mm 4 mps 740 mmHg 21%
    05:00 +26°C° 0 mm 5 mps 741 mmHg 21%
    06:00 +28°C° 0 mm 5 mps 741 mmHg 21%
    07:00 +29°C° 0 mm 5 mps 742 mmHg 21%
    08:00 +32°C° 0 mm 6 mps 742 mmHg 19%
    09:00 +34°C° 0 mm 6 mps 742 mmHg 16%
    10:00 +36°C° 0 mm 6 mps 742 mmHg 13%
    11:00 +36°C° 0 mm 6 mps 742 mmHg 12%
    12:00 +38°C° 0 mm 6 mps 742 mmHg 11%
    13:00 +39°C° 0 mm 6 mps 741 mmHg 9%
    14:00 +39°C° 0 mm 6 mps 741 mmHg 9%
    15:00 +39°C° 0 mm 6 mps 741 mmHg 9%
    16:00 +39°C° 0 mm 6 mps 740 mmHg 9%
    17:00 +36°C° 0 mm 6 mps 740 mmHg 10%
    18:00 +34°C° 0 mm 5 mps 740 mmHg 11%
    19:00 +32°C° 0 mm 4 mps 740 mmHg 12%
    20:00 +30°C° 0 mm 4 mps 740 mmHg 13%
    21:00 +29°C° 0 mm 3 mps 740 mmHg 14%
    22:00 +28°C° 0 mm 3 mps 740 mmHg 15%
    23:00 +28°C° 0 mm 3 mps 740 mmHg 15%

    25 August, Saturday

    Time Temperature Precipitation Wind Pressure Humidity
    00:00 +27°C° 0 mm 3 mps 740 mmHg 16%
    01:00 +27°C° 0 mm 3 mps 740 mmHg 17%
    02:00 +26°C° 0 mm 4 mps 740 mmHg 19%
    03:00 +26°C° 0 mm 4 mps 740 mmHg 21%
    04:00 +25°C° 0 mm 4 mps 740 mmHg 23%
    05:00 +26°C° 0 mm 4 mps 740 mmHg 22%
    06:00 +26°C° 0 mm 5 mps 740 mmHg 22%
    07:00 +27°C° 0 mm 5 mps 741 mmHg 21%
    08:00 +29°C° 0 mm 5 mps 741 mmHg 19%
    09:00 +32°C° 0 mm 5 mps 741 mmHg 16%
    10:00 +34°C° 0 mm 5 mps 741 mmHg 14%
    11:00 +35°C° 0 mm 5 mps 740 mmHg 14%
    12:00 +36°C° 0 mm 5 mps 740 mmHg 13%
    13:00 +38°C° 0 mm 6 mps 740 mmHg 13%
    14:00 +36°C° 0 mm 6 mps 739 mmHg 12%
    15:00 +36°C° 0 mm 7 mps 739 mmHg 12%
    16:00 +37°C° 0 mm 8 mps 739 mmHg 11%
    17:00 +34°C° 0 mm 7 mps 739 mmHg 12%
    18:00 +32°C° 0 mm 6 mps 739 mmHg 13%
    19:00 +29°C° 0 mm 5 mps 739 mmHg 13%
    20:00 +28°C° 0 mm 5 mps 739 mmHg 14%
    21:00 +28°C° 0 mm 5 mps 739 mmHg 16%
    22:00 +27°C° 0 mm 5 mps 739 mmHg 17%
    23:00 +26°C° 0 mm 5 mps 739 mmHg 18%

    26 August, Sunday

    Time Temperature Precipitation Wind Pressure Humidity
    00:00 +25°C° 0 mm 5 mps 739 mmHg 19%
    01:00 +25°C° 0 mm 5 mps 739 mmHg 20%
    02:00 +23°C° 0 mm 5 mps 739 mmHg 20%
    03:00 +22°C° 0 mm 5 mps 740 mmHg 21%
    04:00 +22°C° 0 mm 5 mps 740 mmHg 21%
    05:00 +22°C° 0 mm 5 mps 740 mmHg 21%
    06:00 +23°C° 0 mm 5 mps 741 mmHg 20%
    07:00 +24°C° 0 mm 6 mps 741 mmHg 19%
    08:00 +27°C° 0 mm 6 mps 742 mmHg 18%
    09:00 +28°C° 0 mm 6 mps 742 mmHg 16%
    10:00 +30°C° 0 mm 6 mps 742 mmHg 15%
    11:00 +32°C° 0 mm 6 mps 742 mmHg 15%
    12:00 +32°C° 0 mm 6 mps 741 mmHg 15%
    13:00 +33°C° 0 mm 6 mps 741 mmHg 14%
    14:00 +33°C° 0 mm 7 mps 741 mmHg 15%
    15:00 +33°C° 0 mm 7 mps 741 mmHg 15%
    16:00 +33°C° 0 mm 7 mps 740 mmHg 16%
    17:00 +32°C° 0 mm 6 mps 741 mmHg 18%
    18:00 +29°C° 0 mm 6 mps 741 mmHg 20%
    19:00 +28°C° 0 mm 5 mps 741 mmHg 22%
    20:00 +27°C° 0 mm 5 mps 741 mmHg 23%
    21:00 +26°C° 0 mm 4 mps 741 mmHg 23%
    22:00 +25°C° 0 mm 4 mps 741 mmHg 24%
    23:00 +25°C° 0 mm 4 mps 741 mmHg 24%
    Show more